Weather History for Steamboat Springs, CO

Change the Weather History Date:

Wednesday, January 22, 2014

  Actual Average Record
Temperature  
Mean Temperature 13 °F -  
Max Temperature 26 °F 28 °F 51 °F (1981)
Min Temperature 0 °F 4 °F -44 °F (1937)
Degree Days  
Heating Degree Days 52    
Moisture  
Dew Point 4 °F    
Average Humidity 68    
Maximum Humidity 87    
Minimum Humidity 43    
Precipitation  
Precipitation 0.00 in - - ()
Sea Level Pressure  
Sea Level Pressure 30.10 in    
Wind  
Wind Speed 0 mph (ESE)    
Max Wind Speed 4 mph    
Max Gust Speed -    
Visibility 10 miles    
Events      
Averages and records for this station are not official NWS values.
T = Trace of Precipitation, MM = Missing Value Source: NWS Daily Summary

Daily Weather History Graph

Daily Weather History Graph

Search for Another Location

Airport:

Trip Planner

Search our weather history database for the weather conditions in past years. The results will help you decide how hot, cold, wet, or windy it might be!

Date:

Astronomy

Jan. 22, 2014 Rise Set
Actual Time 7:25 AM MST 5:13 PM MST
Civil Twilight 6:55 AM MST 5:43 PM MST
Nautical Twilight 6:22 AM MST 6:16 PM MST
Astronomical Twilight 5:49 AM MST 6:48 PM MST
Moon 11:50 PM MST (1/22) 10:26 AM MST (1/22)
Length of Visible Light 10h 47m
Length of Day
9h 48m
Waning Gibbous, 65% of the Moon is Illuminated
Jan 22
Waning Gibbous
Jan 23
Last Quarter
Jan 30
New
Feb 6
First Quarter
Feb 14
Full

Hourly Weather History & Observations

Time (MST) Temp. Windchill Dew Point Humidity Pressure Visibility Wind Dir Wind Speed Gust Speed Precip Events Conditions
12:15 AM 8.4 °F - 3.7 °F 81% 30.29 in 10.0 mi Calm Calm - N/A   Clear
12:35 AM 6.4 °F - 2.3 °F 83% 30.27 in 10.0 mi Calm Calm - N/A   Clear
12:55 AM 6.3 °F - 3.2 °F 87% 30.27 in 10.0 mi Calm Calm - N/A   Clear
1:15 AM 6.1 °F - 1.9 °F 83% 30.27 in 10.0 mi Calm Calm - N/A   Clear
1:35 AM 7.7 °F - 3.0 °F 81% 30.26 in 10.0 mi Calm Calm - N/A   Clear
1:55 AM 4.5 °F - -0.4 °F 80% 30.26 in 10.0 mi Calm Calm - N/A   Clear
2:15 AM 4.6 °F - 0.5 °F 83% 30.26 in 10.0 mi Calm Calm - N/A   Clear
2:35 AM 4.1 °F - 0.3 °F 84% 30.25 in 10.0 mi Calm Calm - N/A   Clear
2:55 AM 5.4 °F - 1.8 °F 85% 30.24 in 10.0 mi Calm Calm - N/A   Clear
3:15 AM 5.2 °F - 1.6 °F 85% 30.23 in 10.0 mi Calm Calm - N/A   Clear
3:35 AM 3.4 °F - -1.3 °F 81% 30.23 in 10.0 mi Calm Calm - N/A   Clear
3:55 AM 3.7 °F - -0.2 °F 84% 30.22 in 10.0 mi Calm Calm - N/A   Clear
4:15 AM 5.4 °F - 1.2 °F 83% 30.22 in 10.0 mi Calm Calm - N/A   Clear
4:35 AM 2.7 °F - -1.8 °F 81% 30.22 in 10.0 mi Calm Calm - N/A   Clear
4:55 AM 5.9 °F - 2.1 °F 84% 30.21 in 10.0 mi Calm Calm - N/A   Clear
5:15 AM 4.1 °F - -0.9 °F 80% 30.21 in 10.0 mi Calm Calm - N/A   Clear
5:35 AM 3.4 °F - -1.7 °F 80% 30.21 in 10.0 mi Calm Calm - N/A   Clear
5:55 AM 1.6 °F - -2.0 °F 85% 30.20 in 10.0 mi Calm Calm - N/A   Clear
6:15 AM 3.4 °F - -0.6 °F 84% 30.20 in 10.0 mi Calm Calm - N/A   Clear
6:35 AM 1.8 °F - -2.4 °F 83% 30.19 in 10.0 mi Calm Calm - N/A   Clear
6:55 AM 0.5 °F - -3.8 °F 82% 30.19 in 10.0 mi Calm Calm - N/A   Clear
7:15 AM 0.1 °F - -4.0 °F 83% 30.19 in 10.0 mi Calm Calm - N/A   Clear
7:35 AM 2.3 °F - -1.8 °F 83% 30.18 in 10.0 mi Calm Calm - N/A   Clear
7:55 AM 1.4 °F - -3.1 °F 81% 30.18 in 10.0 mi Calm Calm - N/A   Clear
8:15 AM -0.2 °F - -5.6 °F 78% 30.17 in 10.0 mi Calm Calm - N/A   Clear
8:35 AM 3.9 °F - -0.4 °F 82% 30.16 in 1.5 mi Calm Calm - N/A   Unknown
8:55 AM 4.3 °F - -0.9 °F 79% 30.16 in 10.0 mi Calm Calm - N/A   Clear
9:15 AM 7.9 °F - 3.2 °F 81% 30.16 in 10.0 mi Calm Calm - N/A   Clear
9:35 AM 8.4 °F - 2.5 °F 77% 30.16 in 10.0 mi Calm Calm - N/A   Clear
9:55 AM 11.3 °F - 2.8 °F 69% 30.15 in 10.0 mi Calm Calm - N/A   Clear
10:15 AM 12.6 °F - 1.8 °F 62% 30.14 in 10.0 mi Calm Calm - N/A   Clear
10:35 AM 11.7 °F - 1.2 °F 63% 30.14 in 10.0 mi Calm Calm - N/A   Clear
10:55 AM 13.1 °F - 1.6 °F 60% 30.13 in 10.0 mi Calm Calm - N/A   Clear
11:15 AM 17.2 °F - 4.3 °F 57% 30.11 in 10.0 mi Calm Calm - N/A   Clear
11:35 AM 16.3 °F - 3.7 °F 58% 30.10 in 10.0 mi Calm Calm - N/A   Clear
11:55 AM 16.9 °F - 4.1 °F 57% 30.08 in 10.0 mi Calm Calm - N/A   Clear
12:15 PM 17.4 °F - 4.1 °F 56% 30.06 in 10.0 mi Calm Calm - N/A   Clear
12:35 PM 18.9 °F - 4.6 °F 54% 30.05 in 10.0 mi Calm Calm - N/A   Clear
12:55 PM 23.5 °F - 4.8 °F 45% 30.03 in 10.0 mi Calm Calm - N/A   Clear
1:15 PM 22.5 °F - 6.4 °F 50% 30.03 in 10.0 mi Calm Calm - N/A   Clear
1:35 PM 26.4 °F - 6.6 °F 43% 30.02 in 10.0 mi Calm Calm - N/A   Clear
1:55 PM 26.2 °F - 7.3 °F 45% 30.02 in 10.0 mi Calm Calm - N/A   Clear
2:15 PM 25.3 °F - 6.6 °F 45% 30.00 in 10.0 mi Calm Calm - N/A   Clear
2:35 PM 26.1 °F - 7.9 °F 46% 30.00 in 10.0 mi Calm Calm - N/A   Clear
2:55 PM 24.4 °F - 7.2 °F 48% 30.00 in 10.0 mi Calm Calm - N/A   Clear
3:15 PM 25.5 °F - 7.2 °F 46% 30.00 in 10.0 mi Calm Calm - N/A   Clear
3:35 PM 24.4 °F - 7.2 °F 48% 30.00 in 10.0 mi Calm Calm - N/A   Clear
3:55 PM 25.3 °F - 7.7 °F 47% 29.99 in 10.0 mi Calm Calm - N/A   Clear
4:15 PM 26.6 °F - 8.1 °F 46% 29.98 in 10.0 mi Calm Calm - N/A   Clear
4:35 PM 22.8 °F - 7.2 °F 51% 29.98 in 10.0 mi Calm Calm - N/A   Clear
4:55 PM 23.0 °F - 8.4 °F 54% 29.98 in 10.0 mi Calm Calm - N/A   Clear
5:15 PM 19.8 °F - 7.5 °F 59% 29.98 in 10.0 mi Calm Calm - N/A   Clear
5:35 PM 18.9 °F - 7.7 °F 62% 29.99 in 10.0 mi Calm Calm - N/A   Clear
5:55 PM 18.9 °F - 7.7 °F 62% 30.00 in 10.0 mi Calm Calm - N/A   Clear
6:15 PM 19.0 °F - 7.9 °F 62% 30.00 in 10.0 mi Calm Calm - N/A   Clear
6:35 PM 21.0 °F - 8.8 °F 59% 30.00 in 10.0 mi Calm Calm - N/A   Clear
6:55 PM 20.7 °F - 8.8 °F 60% 29.99 in 10.0 mi Calm Calm - N/A   Clear
7:15 PM 19.2 °F - 8.4 °F 63% 29.99 in 10.0 mi Calm Calm - N/A   Clear
7:35 PM 19.0 °F - 7.7 °F 61% 30.00 in 10.0 mi Calm Calm - N/A   Clear
7:55 PM 18.1 °F - 6.4 °F 60% 30.00 in 10.0 mi Calm Calm - N/A   Clear
8:15 PM 18.7 °F 13.5 °F 7.9 °F 63% 30.00 in 10.0 mi ESE 3.5 mph - N/A   Mostly Cloudy
8:35 PM 17.8 °F - 7.7 °F 65% 30.00 in 10.0 mi Calm Calm - N/A   Overcast
8:55 PM 17.6 °F - 8.2 °F 67% 30.00 in 10.0 mi Calm Calm - N/A   Overcast
9:15 PM 16.9 °F - 7.7 °F 67% 30.00 in 10.0 mi Calm Calm - N/A   Overcast
9:35 PM 16.9 °F - 8.4 °F 69% 30.01 in 10.0 mi Calm Calm - N/A   Overcast
9:55 PM 16.2 °F - 8.4 °F 72% 30.02 in 10.0 mi Calm Calm - N/A   Scattered Clouds
10:15 PM 15.8 °F - 7.7 °F 70% 30.02 in 10.0 mi Calm Calm - N/A   Mostly Cloudy
10:35 PM 14.9 °F - 7.7 °F 73% 30.02 in 10.0 mi Calm Calm - N/A   Mostly Cloudy
10:55 PM 16.3 °F - 7.9 °F 69% 30.02 in 10.0 mi Calm Calm - N/A   Scattered Clouds
11:15 PM 14.7 °F - 7.7 °F 74% 30.02 in 10.0 mi Calm Calm - N/A   Mostly Cloudy
11:35 PM 16.7 °F - 7.7 °F 68% 30.03 in 10.0 mi Calm Calm - N/A   Overcast
11:55 PM 14.7 °F - 7.3 °F 73% 30.03 in 10.0 mi Calm Calm - N/A   Overcast